FW2061 Weather Reports


time (UTC)temp
C
wind
direction
speed
KPH
gust
KPH
rain 1hr
cm
rain 24hr
cm
rain mn
cm
humidity
%
barometer
mb
20260505091025 11 238 0.0 0.0 0.00 0.00 0.00 91 1012.1
20260505090528 11 238 0.0 0.0 0.00 0.00 0.00 91 1012.1
20260505090039 11 238 0.0 0.0 0.00 0.00 0.00 91 1012.0
20260505085530 11 238 0.0 0.0 0.00 0.00 0.00 91 1012.0
20260505085037 11 238 0.0 0.0 0.00 0.00 0.00 91 1012.0
20260505084549 11 238 0.0 0.0 0.00 0.00 0.00 90 1012.0
20260505084041 11 238 0.0 0.0 0.00 0.00 0.00 90 1011.9
20260505083551 11 238 0.0 1.6 0.00 0.00 0.00 90 1011.8
20260505083033 11 238 0.0 1.6 0.00 0.00 0.00 89 1011.8
20260505082526 11 238 0.0 1.6 0.00 0.00 0.00 89 1011.8
20260505082029 11 238 0.0 1.6 0.00 0.00 0.00 89 1011.8
20260505081543 12 238 0.0 1.6 0.00 0.00 0.00 88 1011.8
20260505081032 12 238 0.0 1.6 0.00 0.00 0.00 88 1011.7
20260505080534 12 238 0.0 1.6 0.00 0.00 0.00 88 1011.8
20260505080041 12 238 0.0 4.8 0.00 0.00 0.00 87 1011.7
20260505075534 12 238 1.6 6.4 0.00 0.00 0.00 87 1011.8
20260505075038 12 243 4.8 6.4 0.00 0.00 0.00 88 1011.6
20260505074530 12 237 3.2 6.4 0.00 0.00 0.00 87 1011.6
20260505074042 12 237 3.2 6.4 0.00 0.00 0.00 87 1011.6
20260505073550 12 237 1.6 4.8 0.00 0.00 0.00 87 1011.6
20260505073042 12 229 3.2 4.8 0.00 0.00 0.00 86 1011.4
20260505072526 12 238 1.6 3.2 0.00 0.00 0.00 86 1011.4
20260505072039 12 236 0.0 3.2 0.00 0.00 0.00 85 1011.3
20260505071551 12 237 0.0 3.2 0.00 0.00 0.00 84 1011.4
20260505071032 12 237 1.6 3.2 0.00 0.00 0.00 84 1011.1
20260505070613 12 237 1.6 4.8 0.00 0.00 0.00 83 1011.1
20260505070054 13 237 0.0 4.8 0.00 0.00 0.00 82 1011.0
20260505065526 13 243 3.2 4.8 0.00 0.00 0.00 82 1011.0
20260505065038 13 243 3.2 4.8 0.00 0.00 0.00 82 1010.9
20260505064540 13 241 3.2 6.4 0.00 0.00 0.00 81 1010.9
20260505064032 13 242 4.8 6.4 0.00 0.00 0.00 82 1010.8
20260505063544 13 236 1.6 3.2 0.00 0.00 0.00 81 1010.8
20260505063025 13 237 0.0 0.0 0.00 0.00 0.00 81 1010.9
20260505062534 13 237 0.0 0.0 0.00 0.00 0.00 81 1010.9
20260505062047 13 236 0.0 1.6 0.00 0.00 0.00 80 1010.8
20260505061552 13 236 0.0 1.6 0.00 0.00 0.00 80 1010.8
20260505061034 13 236 1.6 1.6 0.00 0.00 0.00 79 1010.7
20260505060526 14 240 0.0 1.6 0.00 0.00 0.00 79 1010.5
20260505060029 14 240 0.0 1.6 0.00 0.00 0.00 78 1010.4
20260505055542 14 240 0.0 3.2 0.00 0.00 0.00 78 1010.3
20260505055034 14 240 1.6 3.2 0.00 0.00 0.00 78 1010.3
20260505054546 14 240 0.0 4.8 0.00 0.00 0.00 78 1010.1
20260505054029 14 238 1.6 4.8 0.00 0.00 0.00 77 1010.1
20260505053542 15 254 1.6 4.8 0.00 0.00 0.00 76 1010.2
20260505053032 15 253 1.6 4.8 0.00 0.00 0.00 76 1010.3
20260505052543 14 242 1.6 4.8 0.00 0.00 0.00 77 1010.2
20260505052026 14 252 1.6 4.8 0.00 0.00 0.00 77 1010.2
20260505051558 15 254 1.6 6.4 0.00 0.00 0.00 76 1010.2
20260505051030 15 242 3.2 6.4 0.00 0.00 0.00 76 1010.1
20260505050602 15 256 3.2 4.8 0.00 0.00 0.00 76 1010.0
20260505050108 15 243 1.6 8.0 0.00 0.00 0.00 75 1010.0
20260505041530 16 251 3.2 9.7 0.00 0.00 0.00 77 1009.8
20260505041104 16 249 1.6 4.8 0.00 0.00 0.00 78 1009.7
20260505040535 16 266 1.6 11.3 0.00 0.00 0.00 78 1009.5
20260505040033 16 248 3.2 11.3 0.00 0.00 0.00 78 1009.5
20260505035526 16 297 3.2 6.4 0.00 0.00 0.00 78 1009.5
20260505035058 16 272 3.2 6.4 0.00 0.00 0.00 77 1009.4
20260505034550 16 245 1.6 6.4 0.00 0.00 0.00 77 1009.4
20260505034033 16 276 1.6 3.2 0.00 0.00 0.00 76 1009.3
20260505033526 16 281 0.0 3.2 0.00 0.00 0.00 74 1009.2
20260505033030 17 269 0.0 4.8 0.00 0.00 0.00 73 1009.2
20260505032542 17 278 1.6 4.8 0.00 0.00 0.00 73 1009.2
20260505032033 16 244 0.0 1.6 0.00 0.00 0.00 72 1009.2
20260505031545 16 244 0.0 1.6 0.00 0.00 0.00 72 1009.2
20260505031025 16 244 0.0 1.6 0.00 0.00 0.00 72 1009.2
20260505030558 17 245 0.0 1.6 0.00 0.00 0.00 72 1009.2
20260505030030 17 245 0.0 1.6 0.00 0.00 0.00 71 1009.1
20260505025543 17 244 1.6 3.2 0.00 0.00 0.00 71 1009.1
20260505025025 17 269 1.6 12.9 0.00 0.00 0.00 70 1009.1
20260505024538 17 264 1.6 17.7 0.00 0.00 0.00 68 1009.0
20260505024049 17 297 8.0 17.7 0.00 0.00 0.00 68 1008.9
20260505023532 17 359 6.4 12.9 0.00 0.00 0.00 68 1008.9
20260505023024 17 27 6.4 12.9 0.00 0.00 0.00 68 1008.7
20260505022523 18 309 6.4 12.9 0.00 0.00 0.00 67 1008.7
20260505022035 18 211 4.8 14.5 0.00 0.00 0.00 66 1008.7
20260505021547 18 258 4.8 14.5 0.00 0.00 0.00 66 1008.7
20260505021055 18 21 6.4 19.3 0.00 0.00 0.00 65 1008.7
20260505020539 18 330 9.7 19.3 0.00 0.00 0.00 64 1008.6
20260505015538 18 281 6.4 14.5 0.00 0.00 0.00 64 1008.5
20260505015042 18 275 6.4 14.5 0.00 0.00 0.00 64 1008.6
20260505014526 19 325 4.8 14.5 0.00 0.00 0.00 64 1008.6
20260505014026 19 267 6.4 14.5 0.00 0.00 0.00 64 1008.7
20260505013558 19 318 3.2 14.5 0.00 0.00 0.00 65 1008.7
20260505013023 19 25 3.2 9.7 0.00 0.00 0.00 66 1008.8
20260505012527 19 18 3.2 8.0 0.00 0.00 0.00 66 1008.7
20260505012036 19 217 1.6 8.0 0.00 0.00 0.00 66 1008.8
20260505011529 20 339 3.2 8.0 0.00 0.00 0.00 65 1008.8
20260505011048 20 97 0.0 6.4 0.00 0.00 0.00 65 1008.9
20260505010539 20 262 1.6 8.0 0.00 0.00 0.00 64 1008.8
20260505010036 20 247 3.2 9.7 0.00 0.00 0.00 63 1008.8
20260505005529 20 292 3.2 9.7 0.00 0.00 0.00 61 1008.9
20260505005058 20 23 1.6 6.4 0.00 0.00 0.00 61 1008.9
20260505004550 20 284 1.6 8.0 0.00 0.00 0.00 60 1008.9
20260505004059 21 233 1.6 8.0 0.00 0.00 0.00 59 1008.9
20260505003541 21 112 1.6 6.4 0.00 0.00 0.00 58 1008.9
20260505003031 21 52 1.6 6.4 0.00 0.00 0.00 59 1008.9
20260505002541 21 52 1.6 6.4 0.00 0.00 0.00 58 1008.9
20260505002109 22 247 0.0 6.4 0.00 0.00 0.00 58 1008.9
20260505001531 22 217 1.6 8.0 0.00 0.00 0.00 57 1008.8
20260505001029 22 214 3.2 8.0 0.00 0.00 0.00 56 1008.9
20260505000540 22 160 1.6 4.8 0.00 0.00 0.00 57 1008.9
20260505000050 22 218 1.6 4.8 0.00 0.00 0.00 57 1008.9
20260504235531 22 219 1.6 4.8 0.00 0.00 0.00 56 1008.9
20260504235022 22 223 1.6 8.0 0.00 0.00 0.00 57 1009.0
20260504234525 22 242 1.6 8.0 0.00 0.00 0.00 57 1008.9
20260504234041 22 236 1.6 6.4 0.00 0.00 0.00 57 1009.0
20260504233524 23 210 3.2 4.8 0.00 0.00 0.00 56 1009.1
20260504233037 23 190 1.6 4.8 0.00 0.00 0.00 56 1009.1
20260504232547 23 280 1.6 4.8 0.00 0.00 0.00 57 1009.0
20260504232030 22 294 1.6 6.4 0.00 0.00 0.00 57 1008.9
20260504231542 22 307 0.0 6.4 0.00 0.00 0.00 58 1008.9
20260504231051 23 337 4.8 6.4 0.00 0.00 0.00 58 1009.0
20260504230535 23 315 3.2 6.4 0.00 0.00 0.00 51 1008.9
20260504230026 23 278 1.6 4.8 0.00 0.00 0.00 51 1008.9
20260504225528 23 241 1.6 9.7 0.00 0.00 0.00 52 1008.9
20260504225040 23 120 4.8 9.7 0.00 0.00 0.00 52 1009.0
20260504224532 24 233 1.6 12.9 0.00 0.00 0.00 51 1009.0
20260504224101 23 132 4.8 12.9 0.00 0.00 0.00 50 1008.9
20260504223523 23 37 4.8 12.9 0.00 0.00 0.00 50 1009.0
20260504223034 23 116 3.2 9.7 0.00 0.00 0.00 50 1009.0
20260504222526 22 168 1.6 6.4 0.00 0.00 0.00 56 1009.1
20260504222029 22 124 1.6 8.0 0.00 0.00 0.00 63 1009.2
20260504221542 21 120 4.8 17.7 0.00 0.00 0.00 65 1009.3
20260504221031 21 118 11.3 17.7 0.00 0.00 0.00 63 1009.4
20260504220543 22 173 9.7 12.9 0.00 0.00 0.00 60 1009.4
20260504220050 21 125 9.7 12.9 0.00 0.00 0.00 65 1009.6
20260504215532 21 123 9.7 12.9 0.00 0.00 0.00 63 1009.5
20260504215023 20 137 8.0 9.7 0.00 0.00 0.00 71 1009.5
20260504214535 20 122 6.4 11.3 0.00 0.00 0.00 72 1009.6
20260504214108 20 114 8.0 14.5 0.00 0.00 0.00 72 1009.7
20260504213531 20 117 11.3 16.1 0.00 0.00 0.00 68 1009.8
20260504213041 21 121 11.3 16.1 0.00 0.00 0.00 62 1009.7
20260504212548 21 126 9.7 14.5 0.00 0.00 0.00 59 1009.7
20260504212100 21 125 11.3 12.9 0.00 0.00 0.00 60 1009.6
20260504211551 21 131 11.3 11.3 0.00 0.00 0.00 61 1009.8
20260504211042 21 132 6.4 8.0 0.00 0.00 0.00 62 1009.8
20260504210525 20 126 6.4 8.0 0.00 0.00 0.00 64 1009.9
20260504210037 20 133 6.4 8.0 0.00 0.00 0.00 66 1010.0
20260504205549 20 126 6.4 8.0 0.00 0.00 0.00 70 1009.9
20260504205032 20 125 6.4 8.0 0.00 0.00 0.00 69 1010.0
20260504204545 21 121 4.8 9.7 0.00 0.00 0.00 61 1010.0
20260504204053 20 131 6.4 9.7 0.00 0.00 0.00 62 1010.0
20260504203544 20 117 8.0 9.7 0.00 0.00 0.00 61 1010.0
20260504203051 20 128 8.0 9.7 0.00 0.00 0.00 63 1010.0
20260504202533 20 128 9.7 9.7 0.00 0.00 0.00 63 1010.0
20260504202025 20 129 8.0 9.7 0.00 0.00 0.00 63 1010.1
20260504201533 20 124 6.4 9.7 0.00 0.00 0.00 63 1010.1
20260504201045 19 119 8.0 9.7 0.00 0.00 0.00 63 1010.1
20260504200528 20 127 8.0 9.7 0.00 0.00 0.00 63 1010.0
20260504200039 20 127 8.0 9.7 0.00 0.00 0.00 65 1010.1
20260504195552 19 121 8.0 9.7 0.00 0.00 0.00 65 1010.1
20260504195104 19 124 9.7 11.3 0.00 0.00 0.00 65 1010.1
20260504194524 18 126 9.7 11.3 0.00 0.00 0.00 68 1010.1
20260504194055 18 127 9.7 11.3 0.00 0.00 0.00 70 1010.1
20260504193527 17 131 8.0 11.3 0.00 0.00 0.00 78 1010.1
20260504193058 17 135 8.0 11.3 0.00 0.00 0.00 81 1010.2
20260504192549 17 136 8.0 14.5 0.00 0.00 0.00 82 1010.1
20260504192032 17 119 11.3 14.5 0.00 0.00 0.00 82 1010.2
20260504191525 16 125 12.9 16.1 0.00 0.00 0.00 82 1010.1
20260504191028 16 128 12.9 16.1 0.00 0.00 0.00 81 1010.2
20260504190536 17 124 11.3 14.5 0.00 0.00 0.00 81 1010.2
20260504190048 17 124 9.7 14.5 0.00 0.00 0.00 81 1010.3
20260504185600 17 118 11.3 16.1 0.00 0.00 0.00 79 1010.3
20260504185029 17 130 12.9 16.1 0.00 0.00 0.00 79 1010.3
20260504184600 16 128 11.3 14.5 0.00 0.00 0.00 82 1010.3
20260504184047 16 119 8.0 16.1 0.00 0.00 0.00 82 1010.5
20260504183530 16 123 11.3 16.1 0.00 0.00 0.00 82 1010.3
20260504183023 16 136 9.7 14.5 0.00 0.00 0.00 83 1010.3
20260504182535 16 129 9.7 12.9 0.00 0.00 0.00 85 1010.3
20260504182037 16 120 11.3 12.9 0.00 0.00 0.00 85 1010.4
20260504181528 16 129 9.7 11.3 0.00 0.00 0.00 85 1010.4
20260504181040 16 123 8.0 9.7 0.00 0.00 0.00 83 1010.5
20260504180551 16 122 8.0 9.7 0.00 0.00 0.00 83 1010.5
20260504180034 16 136 6.4 8.0 0.00 0.00 0.00 84 1010.5
20260504175543 16 141 4.8 6.4 0.00 0.00 0.00 84 1010.5
20260504175032 16 141 3.2 6.4 0.00 0.00 0.00 83 1010.5
20260504174537 16 126 4.8 6.4 0.00 0.00 0.00 83 1010.3
20260504174029 16 122 4.8 8.0 0.00 0.00 0.00 83 1010.3
20260504173540 16 124 4.8 8.0 0.00 0.00 0.00 83 1010.3
20260504173040 16 120 6.4 8.0 0.00 0.00 0.00 82 1010.3
20260504172533 16 157 6.4 8.0 0.00 0.00 0.00 81 1010.2
20260504172045 16 129 4.8 6.4 0.00 0.00 0.00 82 1010.3
20260504171528 16 203 1.6 3.2 0.00 0.00 0.00 81 1010.3
20260504171059 16 203 0.0 4.8 0.00 0.00 0.00 81 1010.4
20260504170531 15 202 1.6 4.8 0.00 0.00 0.00 83 1010.4
20260504151031 15 113 4.8 9.7 0.00 0.00 0.00 83 1009.9
20260504150611 15 131 4.8 9.7 0.00 0.00 0.00 81 1009.9
20260504141034 14 132 6.4 11.3 0.00 0.00 0.00 85 1009.4
20260504140542 14 134 6.4 11.3 0.00 0.00 0.00 85 1009.4
20260504130529 12 207 0.0 0.0 0.00 0.00 0.00 86 1008.9
20260504110548 13 207 0.0 0.0 0.00 0.00 0.00 81 1008.9
20260504100551 13 207 0.0 0.0 0.00 0.00 0.00 86 1009.0